This demonstration page uses our WeatherBlox Daily Observations layout. Learn more.

Left ArrowRight Arrow

36.19886, -115.1175

Hourly Observations for March 14, 2017

Temp ( °F °C ) Dew Point ( °F °C ) Humidity (%) Winds ( mph kmh ) Pressure ( in mb ) Visibility ( mi km ) Precip ( " mm )
12:53 am 00:53 Clear 64 17.8 33 0.6 32 32 WSW 5 7 30.07 1018 10 16 N/A
1:53 am 01:53 Clear 62 16.7 32 undefined 32 32 NW 6 9 30.08 1019 10 16 N/A
2:53 am 02:53 Clear 63 17.2 30 -1.1 29 29 N N/A 30.08 1019 10 16 N/A
3:53 am 03:53 Clear 61 16.1 30 -1.1 31 31 N 3 6 30.08 1019 10 16 N/A
4:53 am 04:53 Clear 60 15.6 29 -1.7 31 31 N N/A 30.10 1019 10 16 N/A
5:53 am 05:53 Clear 61 16.1 27 -2.8 27 27 N N/A 30.11 1020 10 16 N/A
6:53 am 06:53 Sunny 59 15 30 -1.1 33 33 NW 5 7 30.14 1021 10 16 N/A
7:53 am 07:53 Sunny 59 15 32 undefined 36 36 N N/A 30.16 1021 10 16 N/A
8:53 am 08:53 Sunny 66 18.9 29 -1.7 25 25 N N/A 30.17 1022 10 16 N/A
9:53 am 09:53 Sunny 72 22.2 26 -3.3 18 18 N N/A 30.17 1022 10 16 N/A
10:53 am 10:53 Sunny 74 23.3 27 -2.8 17 17 N N/A 30.17 1022 10 16 N/A
11:53 am 11:53 Sunny 76 24.4 31 -0.6 19 19 SE 9 15 30.15 1021 10 16 N/A
12:53 pm 12:53 Sunny 79 26.1 30 -1.1 17 17 SE 6 9 30.12 1020 10 16 N/A
1:53 pm 13:53 Sunny 81 27.2 30 -1.1 16 16 VRB 3 6 30.09 1019 10 16 N/A
2:53 pm 14:53 Sunny 83 28.3 23 -5 11 11 S 5 7 30.07 1018 10 16 N/A
3:53 pm 15:53 Sunny 85 29.4 20 -6.7 9 9 VRB 5 7 30.05 1018 10 16 N/A
4:53 pm 16:53 Sunny 86 30 20 -6.7 9 9 SE 6 9 30.04 1017 10 16 N/A
5:53 pm 17:53 Sunny 84 28.9 22 -5.6 10 10 E 8 13 30.04 1017 10 16 N/A
6:53 pm 18:53 Clear 81 27.2 23 -5 12 12 NE 6 9 30.05 1018 10 16 N/A
7:53 pm 19:53 Clear 78 25.6 24 -4.4 13 13 N N/A 30.06 1018 10 16 N/A
8:53 pm 20:53 Clear 73 22.8 28 -2.2 19 19 NNW 3 6 30.07 1018 10 16 N/A
9:53 pm 21:53 Clear 70 21.1 31 -0.6 23 23 NW 7 11 30.08 1019 10 16 N/A
10:53 pm 22:53 Clear 67 19.4 32 undefined 27 27 NW 5 7 30.09 1019 10 16 N/A
11:53 pm 23:53 Clear 65 18.3 31 -0.6 28 28 NW 7 11 30.09 1019 10 16 N/A

Powered by AerisWeather